Location: Bremen
(53.0793°N, 8.8017°E)
Time: 09:18:31
(UTC+01:00)

Transit 4A - All Passes

Search period start: 03 December 2021 00:00
Search period end: 13 December 2021 00:00
Orbit: 866 x 978 km, 66.8° (Epoch: 02 December)

Date Brightness Start Highest point End Pass type
(mag) Time Alt. Az. Time Alt. Az. Time Alt. Az.
03 Dec - 00:27:55 10° NW 00:32:38 23° N 00:37:28 10° NE night (unlit)
03 Dec - 02:15:19 10° NW 02:20:52 33° NNE 02:26:30 10° E visible
03 Dec - 04:01:46 10° NW 04:08:01 86° NE 04:14:24 10° SE visible
03 Dec - 05:48:51 10° WNW 05:53:46 25° WSW 05:58:45 10° SSW visible
03 Dec - 19:15:26 10° S 19:20:35 32° ESE 19:25:52 10° NE visible
03 Dec - 21:00:41 10° SW 21:06:35 67° NW 21:12:42 10° NE visible
03 Dec - 22:48:55 10° WNW 22:54:02 28° NNW 22:59:18 10° NE night (unlit)
04 Dec - 00:37:35 10° NW 00:42:24 23° N 00:47:17 10° ENE night (unlit)
04 Dec - 02:24:40 10° NW 02:30:27 39° NNE 02:36:20 10° E visible
04 Dec - 04:11:05 10° NW 04:17:19 73° SW 04:23:39 10° SSE visible
04 Dec - 05:58:45 10° WNW 06:02:45 18° WSW 06:06:47 10° SW visible
04 Dec - 19:24:08 10° S 19:29:40 44° ESE 19:35:24 10° NE visible
04 Dec - 21:10:12 10° WSW 21:16:00 53° NW 21:22:01 10° NE visible
04 Dec - 22:58:48 10° WNW 23:03:44 25° NNW 23:08:48 10° NE night (unlit)
05 Dec - 00:47:11 10° NW 00:52:08 24° NNE 00:57:10 10° ENE night (unlit)
05 Dec - 02:34:00 10° NW 02:39:59 47° NE 02:46:05 10° ESE visible
05 Dec - 04:20:28 10° NW 04:26:33 55° WSW 04:32:44 10° SSE visible
05 Dec - 06:09:18 10° WNW 06:11:40 12° W 06:14:02 10° WSW visible
05 Dec - 17:51:13 10° SE 17:53:44 13° E 17:56:15 10° ENE visible
05 Dec - 19:33:03 10° SSW 19:38:50 60° ESE 19:44:50 10° NE visible
05 Dec - 21:19:51 10° WSW 21:25:30 42° NW 21:31:21 10° NE visible
05 Dec - 23:08:39 10° WNW 23:13:28 24° N 23:18:23 10° NE night (unlit)
06 Dec - 00:56:41 10° NW 01:01:50 27° NNE 01:07:05 10° ENE night (unlit)
06 Dec - 02:43:18 10° NW 02:49:27 59° NE 02:55:43 10° ESE visible
06 Dec - 04:29:55 10° NW 04:35:43 41° WSW 04:41:36 10° S visible
06 Dec - 17:58:40 10° SSE 18:02:38 19° ESE 18:06:39 10° ENE visible
06 Dec - 19:42:09 10° SSW 19:48:04 81° SE 19:54:13 10° NE visible
06 Dec - 21:29:35 10° W 21:35:04 35° NNW 21:40:42 10° NE visible
06 Dec - 23:18:28 10° NW 23:23:13 23° N 23:28:03 10° NE night (unlit)
07 Dec - 01:06:07 10° NW 01:11:30 30° NNE 01:17:00 10° E night (unlit)
07 Dec - 02:52:36 10° NW 02:58:51 74° NE 03:05:14 10° SE night (unlit)
07 Dec - 04:39:27 10° NW 04:44:49 30° WSW 04:50:14 10° S visible
07 Dec - 18:06:49 10° SSE 18:11:36 26° ESE 18:16:30 10° NE visible
07 Dec - 19:51:26 10° SW 19:57:23 79° NW 20:03:33 10° NE visible
07 Dec - 21:39:24 10° W 21:44:40 30° NNW 21:50:06 10° NE visible
07 Dec - 23:28:12 10° NW 23:32:57 23° N 23:37:49 10° NE night (unlit)
08 Dec - 01:15:29 10° NW 01:21:08 35° NNE 01:26:52 10° E night (unlit)
08 Dec - 03:01:55 10° NW 03:08:12 86° SW 03:14:35 10° SE night (unlit)
08 Dec - 04:49:10 10° WNW 04:53:50 22° WSW 04:58:32 10° SSW night (unlit)
08 Dec - 18:15:20 10° S 18:20:39 36° ESE 18:26:08 10° NE visible
08 Dec - 20:00:52 10° SW 20:06:46 61° NW 20:12:52 10° NE visible
08 Dec - 21:49:16 10° WNW 21:54:21 27° NNW 21:59:33 10° NE visible
08 Dec - 23:37:51 10° NW 23:42:42 24° N 23:47:40 10° ENE night (unlit)
09 Dec - 01:24:50 10° NW 01:30:42 41° NE 01:36:41 10° ESE night (unlit)
09 Dec - 03:11:16 10° NW 03:17:28 67° WSW 03:23:46 10° SSE night (unlit)
09 Dec - 04:59:13 10° WNW 05:02:47 16° WSW 05:06:23 10° SW night (unlit)
09 Dec - 18:24:07 10° SSW 18:29:46 50° ESE 18:35:37 10° NE visible
09 Dec - 20:10:27 10° WSW 20:16:13 49° NW 20:22:11 10° NE visible
09 Dec - 21:59:08 10° WNW 22:04:02 25° NNW 22:09:04 10° NE visible
09 Dec - 23:47:24 10° NW 23:52:26 25° NNE 23:57:34 10° ENE night (unlit)
10 Dec - 01:34:09 10° NW 01:40:13 51° NE 01:46:24 10° ESE night (unlit)
10 Dec - 03:20:40 10° NW 03:26:40 50° WSW 03:32:47 10° SSE night (unlit)
10 Dec - 05:10:29 10° W 05:11:40 11° W 05:12:52 10° WSW night (unlit)
10 Dec - 16:50:35 10° SE 16:53:44 15° ESE 16:56:56 10° ENE visible
10 Dec - 18:33:06 10° SSW 18:38:57 67° ESE 18:45:02 10° NE visible
10 Dec - 20:20:08 10° WSW 20:25:44 40° NNW 20:31:32 10° NE visible
10 Dec - 22:08:59 10° WNW 22:13:46 23° N 22:18:41 10° NE visible
10 Dec - 23:56:53 10° NW 00:02:08 28° NNE 00:07:29 10° ENE night (unlit)
11 Dec - 01:43:27 10° NW 01:49:40 64° NE 01:55:59 10° SE night (unlit)
11 Dec - 03:30:08 10° NW 03:35:49 37° WSW 03:41:34 10° S night (unlit)
11 Dec - 16:58:21 10° SSE 17:02:40 21° ESE 17:07:04 10° ENE visible
11 Dec - 18:42:16 10° SW 18:48:13 88° SE 18:54:24 10° NE visible
11 Dec - 20:29:54 10° W 20:35:19 34° NNW 20:40:54 10° NE visible
11 Dec - 22:18:46 10° NW 22:23:31 23° N 22:28:23 10° NE visible
12 Dec - 00:06:18 10° NW 00:11:48 32° NNE 00:17:23 10° E night (unlit)
12 Dec - 01:52:45 10° NW 01:59:03 81° NE 02:05:26 10° SE night (unlit)
12 Dec - 03:39:44 10° NW 03:44:53 27° WSW 03:50:06 10° SSW night (unlit)
12 Dec - 17:06:39 10° S 17:11:39 30° ESE 17:16:49 10° NE visible
12 Dec - 18:51:36 10° SW 18:57:34 72° NW 19:03:44 10° NE visible
12 Dec - 20:39:44 10° W 20:44:57 29° NNW 20:50:19 10° NE visible
12 Dec - 22:28:28 10° NW 22:33:17 23° N 22:38:11 10° NE visible
